{"data":{"norad_id":58140,"intl_designator":"2023-162Y","name":"STARLINK-30780","alt_names":[],"object_type":"PAYLOAD","status":"ACTIVE","operator":null,"country":"US","launch_date":"2023-10-22","launch_site_code":"AFETR","launch_vehicle":null,"mission":null,"orbit_class":"UNKNOWN","rcs_meters":null,"size_class":null,"mass_kg":null,"dimensions":null,"purposes":["comms"],"wikipedia_slug":null,"has_3d_model":false,"image_url":null,"decayed_at":null,"tle_current":{"epoch":"2026-09-20T07:20:52.655136Z","epoch_age_seconds":157233,"freshness":"FRESH","line1":"1 58140U 23162Y   26263.30616499  .00000401  00000+0  24108-4 0  9992","line2":"2 58140  43.0049 113.1792 0001233 261.1385  98.9327 15.27570006162076","mean_motion":15.27570006,"eccentricity":0.0001233,"inclination_deg":43.0049,"raan_deg":113.1792,"arg_perigee_deg":261.1385,"mean_anomaly_deg":98.9327,"bstar":2.4108e-5,"rev_number":16207,"period_min":94.267365446032,"perigee_km":482.23303389864,"apogee_km":483.92500976962,"semimajor_km":6861.2160218341,"source":"CELESTRAK","updated_at":"2026-09-21T09:00:33.795131Z"}}}